www.pogodaiklimat.ru

Погода и климат >> Архив погоды >> Мали >> Kenieba


ПОГОДА в Kenieba

  • Прогноз погоды в Kenieba
  • Монитор погоды в Kenieba
  • Климат города

АРХИВ ПОГОДЫ в Kenieba

Время (UTC), дата Ветер
(напр.,м/с)
 
Видим.   Явления Облачность Т
(С)
Тd
(С)
f
(%)
Тe
(С)
Тes
(С)
Комфортность P
(гПа)
Po
(гПа)
Тmin
(С)
Tmax
(С)
R
(мм)
R24
(мм)
S
(см)
03 13.07 штиль 0 10 км 6/0
[Ci sp]
+27.1 +24.1 84 +38 +38 очень
душно
1011.8 996.9
06 13.07 штиль 0 7000 м гроза, ливневой дождь 10/5 300 м
[Cb cap Ac As]
+25.0 +24.3 96 +35 +35 очень
душно
1014.0 998.1 +25.0 17
09 13.07 штиль 0 10 км {гроза, дождь} 9/6 900 м
[Sc Ac As]
+26.8 +24.2 86 +37 +39 очень
душно
1014.1 999.3
12 13.07 штиль 0 10 км {гроза, дождь} 9/6 900 м
[Sc Ac As]
+28.3 +23.9 77 +39 +44 очень
душно
1014.0 999.1 5
15 13.07 СЗ 2 10 км гроза без осадков 8/8 900 м
[Cb cap Ci sp]
+30.4 +24.6 71 +43 +46 опасность
перегрева
1011.9 997.0
18 13.07 ЮВ 1 10 км в посл. час гроза {дождь} 10/6 900 м
[Sc diur, vesp Ac As]
+28.4 +25.0 82 +41 +41 опасность
перегрева
1010.4 995.5 +31.1 5
21 13.07 штиль 0 10 км 9/5 900 м
[Sc Ac As]
+27.3 +25.6 90 +40 +40 очень
душно
1012.0 997.0
00 14.07 штиль 0 10 км гроза без осадков 9/5 900 м
[Cb cap Ac As Ci sp]
+27.0 +24.9 88 +39 +39 очень
душно
1013.0 998.1
03 14.07 штиль 0 10 км в посл. час гроза 9/5 900 м
[Sc diur, vesp Ac As Ci sp]
+26.0 +25.3 96 +38 +38 очень
душно
1012.7 997.8
06 14.07 СЗ 1 10 км {гроза} 9/5 900 м
[Cu Sc Ac As Ci sp]
+26.0 +24.0 89 +36 +36 очень
душно
1013.3 998.3 +25.8 5
09 14.07 штиль 0 10 км 8/0
[Ac As Ci sp]
+28.0 +24.3 80 +39 +46 очень
душно
1013.3 998.4
12 14.07 С 2 10 км 8/4 900 м
[Sc Ci sp]
+31.9 +25.4 69 +46 +57 опасность
перегрева
1012.9 998.0
15 14.07 З 2 10 км 8/3 900 м
[Sc Ac As]
+34.0 +25.0 59 +47 +53 опасность
перегрева
1010.1 995.3
18 14.07 СЗ 2 10 км 8/4 900 м
[Sc Ci sp]
+33.6 +24.7 60 +47 +48 опасность
перегрева
1009.5 994.7 +35.1
21 14.07 С 2 10 км гроза без осадков 8/3 900 м
[Cb cap Ci sp]
+31.0 +26.6 77 +47 +47 опасность
перегрева
1011.0 996.2
00 15.07 штиль 0 10 км гроза без осадков 8/1 1000 м
[Cb cap Ci sp]
+29.0 +26.9 88 +45 +45 опасность
перегрева
1011.9 997.1
03 15.07 штиль 0 10 км гроза без осадков 8/1 1000 м
[Cb cap Ci sp]
+27.7 +23.1 76 +37 +37 очень
душно
1010.8 996.0
06 15.07 ЮЗ 2 10 км пыль {гроза} 9/4 900 м
[Sc diur, vesp Ac As]
+27.0 +22.6 77 +36 +36 очень
душно
1012.0 997.2 +27.0
09 15.07 СЗ 2 10 км 9/5 900 м
[Sc Ci sp]
+27.7 +23.1 76 +37 +40 очень
душно
1013.0 998.1
12 15.07 СЗ 2 10 км 9/4 900 м
[Sc Ci sp]
+31.5 +24.5 66 +44 +54 опасность
перегрева
1011.8 997.0
15 15.07 З 1 10 км 9/4 900 м
[Cu Sc Ci sp]
+34.1 +24.4 57 +47 +56 опасность
перегрева
1009.9 995.2
18 15.07 СЗ 2 10 км 9/6 900 м
[Cu Sc Ci sp]
+32.6 +24.9 64 +46 +47 опасность
перегрева
1008.8 994.0 +34.6
21 15.07 З 1 10 км 8/6 900 м
[Cu Sc Ac As]
+29.8 +24.7 74 +42 +42 опасность
перегрева
1010.4 995.6
00 16.07 штиль 0 10 км 8/6 900 м
[Cu Sc Ac As]
+29.0 +24.8 78 +41 +41 опасность
перегрева
1011.1 996.3
03 16.07 штиль 0 10 км 8/5 900 м
[Cu Sc Ac As]
+28.2 +24.4 80 +40 +40 очень
душно
1010.2 995.5
06 16.07 З 1 10 км 10/5 900 м
[Sc Ac As]
+27.2 +24.1 83 +38 +38 очень
душно
1011.0 996.2 +27.2
09 16.07 З 2 10 км 9/4 900 м
[Sc Ci sp]
+28.6 +24.3 78 +40 +44 очень
душно
1012.4 997.5
12 16.07 СЗ 2 10 км 8/6 900 м
[Sc Ci sp]
+31.5 +23.1 61 +42 +49 опасность
перегрева
1011.8 997.0
15 16.07 ЮЗ 2 10 км 9/6 900 м
[Sc Ci sp]
+33.6 +24.0 57 +45 +50 опасность
перегрева
1009.5 994.8
18 16.07 штиль 0 10 км 9/3 900 м
[Sc Ci sp]
+33.1 +24.4 60 +45 +47 опасность
перегрева
1008.5 993.7 +34.3
21 16.07 Ю 2 10 км гроза без осадков 9/5 900 м
[Cb cap Ci sp]
+28.4 +22.9 72 +38 +38 очень
душно
1011.9 997.0
00 17.07 штиль 0 10 км {гроза} 8/3 900 м
[Sc diur, vesp Ci sp]
+27.3 +23.1 78 +37 +37 очень
душно
1012.2 997.3
03 17.07 штиль 0 10 км 8/0
[Ci sp]
+25.5 +23.3 88 +34 +34 очень
душно
1010.8 996.0
06 17.07 штиль 0 10 км 9/3 900 м
[Sc Ac As]
+25.6 +23.3 87 +34 +34 очень
душно
1011.3 996.5 +25.3
09 17.07 Ю 1 10 км 8/4 900 м
[Sc Ci sp]
+28.3 +23.4 75 +38 +43 очень
душно
1012.4 997.5
12 17.07 З 2 10 км 8/5 900 м
[Cu Sc Ci sp]
+31.8 +24.0 63 +43 +53 опасность
перегрева
1012.2 997.4
15 17.07 СВ 1 10 км смерч (торнадо) {гроза} 9/5 900 м
[Cb cap Ac As Ci sp]
+30.8 +23.7 66 +42 +47 опасность
перегрева
1010.9 996.0
18 17.07 Ю 1 10 км в посл. час гроза 10/8 900 м
[Sc diur, vesp Ac As]
+28.1 +22.1 70 +37 +37 очень
душно
1010.4 995.5 +32.5
21 17.07 Ю 1 10 км {гроза} 9/5 900 м
[Sc Ac As Ci sp]
+26.5 +22.4 78 +35 +35 очень
душно
1011.7 996.7
00 18.07 СЗ 1 10 км гроза без осадков 9/5 900 м
[Cb cap Ac As Ci sp]
+25.7 +22.9 85 +34 +34 очень
душно
1012.4 997.5
03 18.07 штиль 0 10 км {гроза} 9/5 900 м
[Sc Ac As Ci sp]
+25.5 +23.0 86 +34 +34 очень
душно
1011.7 996.8
06 18.07 штиль 0 10 км {гроза} 10/5 900 м
[Sc Ac As]
+25.7 +24.0 90 +35 +35 очень
душно
1012.5 997.5 +25.0
09 18.07 З 2 10 км 8/8 900 м
[Sc]
+27.6 +24.2 82 +39 +40 очень
душно
1013.1 998.1
12 18.07 СЗ 2 10 км гроза без осадков 9/6 900 м
[Cb cap Ac As]
+30.5 +23.7 67 +42 +46 опасность
перегрева
1012.9 998.0
15 18.07 З 2 10 км гроза без осадков 9/6 900 м
[Cb cap Ac As]
+32.0 +25.0 67 +46 +49 опасность
перегрева
1010.2 995.4
18 18.07 ЮЗ 2 10 км в посл. час гроза 9/5 900 м
[Sc diur, vesp Ac As]
+25.7 +24.7 94 +36 +37 очень
душно
1010.7 995.7 +32.5 15
21 18.07 Ю 2 10 км гроза без осадков 8/3 900 м
[Cb cap Ci sp]
+25.8 +24.7 94 +37 +37 очень
душно
1011.7 996.7
00 19.07 Ю 2 8000 м гроза, ливневой дождь 10/6 900 м
[Cb cap Ac As]
+23.6 +23.2 98 +32 +32 очень
душно
1012.7 997.7 16
03 19.07 Ю 2 7000 м дождь {гроза} 10/6 900 м
[Sc diur, vesp Ac As]
+24.0 +23.0 94 +32 +32 очень
душно
1012.5 997.5
06 19.07 штиль 0 10 км {гроза, дождь} 10/6 300 м
[Frnb Ac As]
+23.4 +23.1 98 +33 +33 очень
душно
1013.0 997.9 +23.0 67
09 19.07 штиль 0 10 км 8/5 900 м
[Sc Ac As]
+25.2 +23.2 89 +34 +37 очень
душно
1013.5 998.5
12 19.07 штиль 0 10 км 8/8 900 м
[Sc]
+28.2 +23.9 78 +39 +45 очень
душно
1013.0 998.0
15 19.07 СВ 2 10 км 8/5 900 м
[Cu Sc Ci sp]
+29.3 +23.9 73 +41 +47 опасность
перегрева
1011.6 996.6
18 19.07 СЗ 3 10 км 9/6 900 м
[Cu Sc Ci sp]
+29.6 +24.5 74 +42 +42 опасность
перегрева
1010.6 995.8 +30.7
21 19.07 штиль 0 10 км 8/5 900 м
[Cu Sc Ac As]
+27.2 +24.8 87 +39 +39 очень
душно
1011.7 996.7

 

Местоположение метеостанции Kenieba (Мали): широта 12.85 долгота -11.23 высота над уровнем моря 132 м.

В архиве по умолчанию представлена погода в Kenieba за последнюю неделю. Архивные данные за месяц целиком и за предыдущие месяцы, начиная с января 2011 года, Вы можете получить, выбрав интересующий диапазон дат из раскрывающегося списка и нажав кнопку "Ввод!".


*Определитесь, кто Вы:
робот инопланетянин человек

Внимание! Время в таблицах - всемирное. Для получения местного времени необходимо прибавить поправку, которая в Kenieba равна 0 ч.

Смотрите также архив погоды в соседних городах и на ближайших метеорологических станциях:

Погода в Kedougou (Сенегал) (111 км)
Погода в Kayes (Мали) (177 км)
Погода в Kita (Мали) (192 км)
Погода в Koundara (Гвинея) (249 км)
Погода в Fatoto (Гамбия) (261 км)
Погода в Yelimane (Мали) (263 км)
Погода в Tambacounda (Сенегал) (284 км)
Погода в Basse (Гамбия) (327 км)
Погода в Nioro Du Sahel (Мали) (333 км)
Погода в Bamako (Мали) (358 км)

Пояснения к столбцам:

Ветер - указаны скорость ветра в м/с - средняя за 10 мин, порывы в срок и между сроками (в фигурных скобках) и направление, откуда дует ветер: С - северный, СВ - северо-восточный, В - восточный, ЮВ - юго-восточный, Ю - южный, ЮЗ - юго-западный, З - западный, СЗ - северо-западный.
Видимость - горизонтальная дальность видимости в метрах или километрах. При видимости от 1 до 10 км при отсутствии осадков обычно наблюдается дымка, при ухудшении видимости до 1 км и менее - туман. В сухую погоду видимость может ухудшаться дымом, пылью или мглою.
Явления - указаны атмосферные явления, наблюдавшиеся в срок или в последний час перед сроком; фигурными скобками обозначены явления, наблюдавшиеся между сроками (за 1-3 часа до срока); квадратными скобками обозначены град или гололедные отложения с указанием их диаметра в мм.
Облачность - указаны через наклонную черту общая и нижняя облачность в баллах и высота нижней границы облаков в метрах; квадратными скобками обозначены формы облаков: Ci - перистые, Cs - перисто-слоистые, Cc - перисто-кучевые, Ac - высококучевые, As - высокослоистые, Sc - слоисто-кучевые, Ns - слоисто-дождевые, Cu - кучевые, Cb - кучево-дождевые. Подробнее классификацию облаков см. в Атласе облаков (PDF).
T - Температура воздуха - температура, измеренная на высоте 2 м над землей.
Td - Температура точки росы - температура, при понижении до которой содержащийся в воздухе водяной пар достигнет насыщения.
f - Относительная влажность воздуха - влажноcть воздуха, измеренная на высоте 2 м над землей.
Te - Эффективная температура - температура, которую ощущает одетый по сезону человек в тени. Характеристика душности погоды. При расчете учитывается влияние влажности воздуха и скорости ветра на теплоощущения человека.
Tes - Эффективная температура на солнце - температура, которую ощущает человек, с поправкой на солнечный нагрев. Характеристика знойности погоды. Зависит от высоты солнца над горизонтом, облачности и скорости ветра. Ночью, в пасмурную погоду, а также при ветре 12 м/с и более поправка равна нулю.
P - Атмосферное давление - приведенное к уровню моря атмосферное давление.
Po - Атмосферное давление - измеренное на уровне метеостанции атмосферное давление.
Tmin - Минимальная температура - минимум температуры воздуха на высоте 2 м над землей.
Tmax - Максимальная температура - максимум температуры воздуха на высоте 2 м над землей.
R - Количество осадков - Количество выпавших осадков за период времени, мм. При наведении курсора мыши на число - период времени, за который выпало указанное количество осадков.
R24 - Количество осадков - Количество выпавших осадков за 24 часа, мм.
S - Снежный покров - Высота снежного покрова, см. При наведении курсора мыши на число - состояние снежного покрова и степень покрытия местности в баллах.